Radiation Dose at Monitoring Post of Fukushima Daini Nuclear Power Station
Date,Time,MP-1(microSv/h),MP-2(microSv/h),MP-3(microSv/h),MP-4(microSv/h),MP-5(microSv/h),MP-6(microSv/h),MP-7(microSv/h),Wind Direction,Wind Velocity(m/s),Rain
2022/06/12,00:00,0.149,0.140,0.216,0.210,0.213,0.119,0.076,north-northwest,2.0,No
2022/06/12,00:10,0.149,0.138,0.214,0.211,0.212,0.118,0.075,northwest,1.0,No
2022/06/12,00:20,0.149,0.138,0.215,0.209,0.215,0.119,0.076,north-northwest,1.8,No
2022/06/12,00:30,0.147,0.138,0.213,0.209,0.212,0.118,0.076,northwest,1.4,No
2022/06/12,00:40,0.149,0.137,0.214,0.207,0.213,0.118,0.076,north-northwest,1.2,No
2022/06/12,00:50,0.146,0.137,0.213,0.209,0.211,0.119,0.076,north-northwest,1.9,No
2022/06/12,01:00,0.149,0.138,0.215,0.207,0.214,0.118,0.076,northwest,0.9,No
2022/06/12,01:10,0.147,0.137,0.214,0.209,0.212,0.119,0.076,north-northwest,2.0,Yes
2022/06/12,01:20,0.148,0.137,0.213,0.207,0.212,0.119,0.075,north-northwest,2.3,Yes
2022/06/12,01:30,0.147,0.136,0.212,0.209,0.213,0.119,0.076,north-northwest,3.2,No
2022/06/12,01:40,0.148,0.137,0.212,0.207,0.212,0.118,0.075,northwest,3.4,No
2022/06/12,01:50,0.148,0.136,0.213,0.210,0.214,0.119,0.076,north-northwest,2.2,No
2022/06/12,02:00,0.148,0.138,0.212,0.208,0.211,0.118,0.076,north-northwest,3.0,No
2022/06/12,02:10,0.148,0.136,0.213,0.209,0.213,0.118,0.077,north-northwest,3.8,No
2022/06/12,02:20,0.147,0.137,0.212,0.207,0.211,0.118,0.076,north-northwest,4.0,No
2022/06/12,02:30,0.148,0.137,0.214,0.208,0.214,0.119,0.076,north-northwest,3.8,No
2022/06/12,02:40,0.147,0.138,0.213,0.208,0.212,0.119,0.076,north,3.5,No
2022/06/12,02:50,0.149,0.136,0.214,0.209,0.215,0.118,0.077,north,2.9,No
2022/06/12,03:00,0.147,0.137,0.213,0.209,0.213,0.119,0.077,north,2.9,No
2022/06/12,03:10,0.149,0.137,0.213,0.210,0.214,0.119,0.078,north-northwest,3.9,No
2022/06/12,03:20,0.150,0.137,0.212,0.208,0.213,0.120,0.077,north-northwest,3.8,No
2022/06/12,03:30,0.149,0.137,0.214,0.211,0.212,0.119,0.078,north-northwest,3.5,Yes
2022/06/12,03:40,0.148,0.138,0.215,0.209,0.214,0.119,0.076,north-northwest,3.3,Yes
2022/06/12,03:50,0.149,0.138,0.216,0.210,0.214,0.119,0.078,north-northwest,3.3,Yes
2022/06/12,04:00,0.149,0.138,0.213,0.209,0.214,0.119,0.076,north,3.8,Yes
2022/06/12,04:10,0.149,0.137,0.214,0.209,0.213,0.120,0.077,north-northwest,4.5,Yes
2022/06/12,04:20,0.149,0.138,0.214,0.209,0.216,0.120,0.077,north-northwest,3.4,Yes
2022/06/12,04:30,0.149,0.138,0.214,0.209,0.213,0.119,0.078,north-northwest,4.3,Yes
2022/06/12,04:40,0.148,0.138,0.213,0.208,0.215,0.119,0.078,north-northwest,5.0,Yes
2022/06/12,04:50,0.147,0.138,0.214,0.209,0.212,0.119,0.076,north-northwest,5.1,Yes
2022/06/12,05:00,0.148,0.137,0.212,0.209,0.214,0.119,0.077,north-northwest,5.3,Yes
2022/06/12,05:10,0.147,0.136,0.214,0.208,0.212,0.120,0.077,north-northwest,5.6,Yes
2022/06/12,05:20,0.148,0.136,0.212,0.209,0.214,0.119,0.077,north-northwest,5.0,Yes
2022/06/12,05:30,0.147,0.136,0.215,0.208,0.213,0.119,0.076,north-northwest,4.9,Yes
2022/06/12,05:40,0.151,0.138,0.213,0.210,0.214,0.120,0.077,northwest,4.5,Yes
2022/06/12,05:50,0.148,0.137,0.214,0.209,0.214,0.120,0.078,north-northwest,4.2,Yes
2022/06/12,06:00,0.150,0.139,0.213,0.210,0.213,0.121,0.080,north-northeast,12.3,Yes
2022/06/12,06:10,0.148,0.140,0.213,0.207,0.213,0.121,0.080,north,3.1,Yes
2022/06/12,06:20,0.149,0.141,0.211,0.206,0.213,0.121,0.081,northeast,8.8,Yes
2022/06/12,06:30,0.148,0.141,0.209,0.204,0.215,0.120,0.082,north,5.2,Yes
2022/06/12,06:40,0.149,0.141,0.210,0.207,0.214,0.121,0.082,north-northwest,6.0,Yes
2022/06/12,06:50,0.148,0.141,0.211,0.207,0.216,0.120,0.082,-,CALM,Yes
2022/06/12,07:00,0.148,0.141,0.211,0.208,0.216,0.121,0.082,north,4.6,Yes
2022/06/12,07:10,0.147,0.142,0.213,0.207,0.217,0.120,0.082,northwest,2.3,Yes
2022/06/12,07:20,0.147,0.141,0.211,0.208,0.215,0.121,0.082,north,5.9,Yes
2022/06/12,07:30,0.146,0.141,0.211,0.205,0.215,0.120,0.081,north,6.2,Yes
2022/06/12,07:40,0.146,0.140,0.211,0.207,0.214,0.119,0.081,north,5.5,Yes
2022/06/12,07:50,0.145,0.139,0.210,0.207,0.215,0.118,0.080,north-northwest,5.0,Yes
2022/06/12,08:00,0.144,0.136,0.211,0.207,0.212,0.118,0.079,north-northwest,5.3,Yes
2022/06/12,08:10,0.145,0.137,0.209,0.205,0.213,0.117,0.078,northwest,5.4,Yes
2022/06/12,08:20,0.145,0.137,0.210,0.205,0.212,0.118,0.077,north-northwest,7.0,Yes
2022/06/12,08:30,0.144,0.136,0.208,0.204,0.214,0.117,0.078,north-northwest,6.2,Yes
2022/06/12,08:40,0.144,0.135,0.209,0.204,0.211,0.117,0.077,north-northwest,6.6,Yes
2022/06/12,08:50,0.144,0.136,0.207,0.204,0.212,0.116,0.077,north-northwest,7.7,Yes
2022/06/12,09:00,0.144,0.136,0.209,0.204,0.209,0.116,0.077,north-northwest,4.8,Yes
2022/06/12,09:10,0.144,0.135,0.206,0.203,0.212,0.116,0.078,north-northwest,7.1,Yes
2022/06/12,09:20,0.143,0.136,0.206,0.202,0.210,0.117,0.078,north-northwest,7.1,Yes
2022/06/12,09:30,0.143,0.136,0.208,0.202,0.211,0.117,0.079,northwest,7.0,Yes
2022/06/12,09:40,0.142,0.136,0.207,0.201,0.210,0.117,0.079,north-northwest,6.9,Yes
2022/06/12,09:50,0.142,0.136,0.207,0.203,0.212,0.116,0.078,north-northwest,8.1,Yes
2022/06/12,10:00,0.142,0.136,0.207,0.202,0.211,0.116,0.076,north-northwest,6.8,Yes
2022/06/12,10:10,0.143,0.136,0.209,0.203,0.211,0.115,0.077,north-northwest,6.8,Yes
2022/06/12,10:20,0.142,0.135,0.207,0.204,0.210,0.116,0.077,north-northwest,6.8,Yes
2022/06/12,10:30,0.142,0.135,0.208,0.203,0.210,0.115,0.077,northwest,6.0,Yes
2022/06/12,10:40,0.142,0.135,0.206,0.202,0.210,0.116,0.078,north-northwest,6.3,Yes
2022/06/12,10:50,0.142,0.135,0.205,0.202,0.210,0.116,0.077,north-northwest,8.6,Yes
2022/06/12,11:00,0.142,0.135,0.206,0.204,0.210,0.116,0.077,north-northwest,7.1,Yes
2022/06/12,11:10,0.142,0.134,0.206,0.202,0.209,0.115,0.076,north-northwest,8.1,Yes
2022/06/12,11:20,0.143,0.135,0.208,0.203,0.210,0.115,0.076,north-northwest,7.1,Yes
2022/06/12,11:30,0.141,0.135,0.207,0.202,0.209,0.114,0.076,north-northwest,6.2,Yes
2022/06/12,11:40,0.143,0.135,0.208,0.203,0.211,0.115,0.078,north,2.9,Yes
2022/06/12,11:50,0.143,0.136,0.207,0.203,0.209,0.115,0.077,north-northwest,6.5,Yes
2022/06/12,12:00,0.143,0.135,0.207,0.203,0.212,0.116,0.077,north-northwest,6.6,Yes
2022/06/12,12:10,0.142,0.135,0.207,0.202,0.210,0.115,0.077,north,7.5,Yes
2022/06/12,12:20,0.142,0.135,0.208,0.204,0.211,0.116,0.078,north,6.4,Yes
2022/06/12,12:30,0.143,0.136,0.208,0.202,0.210,0.116,0.078,north-northwest,6.4,Yes
2022/06/12,12:40,0.143,0.137,0.206,0.204,0.212,0.117,0.079,north-northwest,7.8,Yes
2022/06/12,12:50,0.143,0.137,0.209,0.203,0.212,0.118,0.080,north-northwest,7.1,Yes
2022/06/12,13:00,0.143,0.137,0.207,0.204,0.214,0.119,0.080,northwest,6.5,Yes
2022/06/12,13:10,0.145,0.137,0.207,0.205,0.212,0.118,0.079,north-northwest,4.9,Yes
2022/06/12,13:20,0.144,0.137,0.209,0.204,0.213,0.117,0.078,northwest,6.3,Yes
2022/06/12,13:30,0.144,0.137,0.209,0.205,0.211,0.118,0.079,north-northwest,6.0,Yes
2022/06/12,13:40,0.145,0.138,0.209,0.204,0.213,0.118,0.079,north-northwest,5.3,Yes
2022/06/12,13:50,0.145,0.138,0.208,0.204,0.211,0.117,0.080,north-northwest,6.2,Yes
2022/06/12,14:00,0.145,0.138,0.210,0.205,0.213,0.119,0.080,north-northwest,5.0,Yes
2022/06/12,14:10,0.145,0.139,0.209,0.207,0.212,0.119,0.080,north,7.0,Yes
2022/06/12,14:20,0.146,0.139,0.210,0.205,0.214,0.119,0.080,north-northwest,5.7,Yes
2022/06/12,14:30,0.145,0.138,0.209,0.207,0.213,0.118,0.079,north-northwest,5.7,Yes
2022/06/12,14:40,0.145,0.137,0.209,0.205,0.214,0.118,0.078,north-northwest,5.8,No
2022/06/12,14:50,0.144,0.136,0.207,0.204,0.210,0.117,0.077,north-northwest,5.5,No
2022/06/12,15:00,0.143,0.136,0.207,0.203,0.212,0.116,0.077,north,6.9,No
2022/06/12,15:10,0.143,0.135,0.207,0.204,0.208,0.115,0.076,north,7.4,No
2022/06/12,15:20,0.143,0.134,0.208,0.202,0.212,0.115,0.077,north,6.2,No
2022/06/12,15:30,0.142,0.134,0.205,0.205,0.209,0.114,0.076,north,6.3,No
2022/06/12,15:40,0.143,0.133,0.206,0.202,0.210,0.114,0.075,north,6.0,No
2022/06/12,15:50,0.143,0.134,0.206,0.202,0.208,0.114,0.074,north,6.8,No
2022/06/12,16:00,0.144,0.133,0.207,0.202,0.209,0.113,0.074,north,5.2,No
2022/06/12,16:10,0.142,0.134,0.206,0.203,0.207,0.114,0.074,north,5.6,No
2022/06/12,16:20,0.143,0.133,0.207,0.201,0.209,0.113,0.074,north,5.8,No
2022/06/12,16:30,0.143,0.133,0.205,0.203,0.208,0.113,0.074,north,5.7,No
2022/06/12,16:40,0.143,0.134,0.206,0.202,0.209,0.113,0.075,north,4.7,No
2022/06/12,16:50,0.142,0.134,0.206,0.203,0.209,0.113,0.074,north,4.0,No
2022/06/12,17:00,0.144,0.133,0.206,0.202,0.208,0.113,0.074,north-northwest,3.9,No
2022/06/12,17:10,0.143,0.133,0.207,0.202,0.209,0.113,0.074,north-northwest,3.6,No
2022/06/12,17:20,0.144,0.132,0.206,0.202,0.208,0.113,0.074,north-northwest,4.0,No
2022/06/12,17:30,0.142,0.133,0.207,0.202,0.209,0.113,0.074,north-northwest,3.0,No
2022/06/12,17:40,0.143,0.133,0.207,0.202,0.208,0.113,0.074,north,2.7,No
2022/06/12,17:50,0.142,0.133,0.206,0.203,0.209,0.113,0.073,north,2.3,No
2022/06/12,18:00,0.143,0.132,0.207,0.202,0.207,0.113,0.074,north-northwest,1.8,No
2022/06/12,18:10,0.142,0.134,0.207,0.203,0.209,0.114,0.074,northwest,2.3,No
2022/06/12,18:20,0.142,0.133,0.206,0.201,0.207,0.114,0.073,north,1.5,No
2022/06/12,18:30,0.142,0.133,0.207,0.204,0.210,0.114,0.074,north,1.5,No
2022/06/12,18:40,0.144,0.134,0.206,0.203,0.208,0.113,0.075,north,2.8,No
2022/06/12,18:50,0.142,0.132,0.207,0.204,0.208,0.114,0.074,north,3.4,No
2022/06/12,19:00,0.143,0.133,0.206,0.202,0.207,0.114,0.074,north,2.9,No
2022/06/12,19:10,0.143,0.132,0.207,0.204,0.211,0.114,0.074,north-northeast,1.7,No
2022/06/12,19:20,0.143,0.133,0.207,0.202,0.209,0.113,0.074,north-northeast,1.8,No
2022/06/12,19:30,0.143,0.132,0.207,0.203,0.210,0.114,0.073,north-northeast,2.1,No
2022/06/12,19:40,0.144,0.134,0.207,0.203,0.208,0.114,0.074,northeast,2.6,No
2022/06/12,19:50,0.144,0.134,0.206,0.202,0.209,0.115,0.074,north-northeast,0.7,No
2022/06/12,20:00,0.143,0.133,0.207,0.203,0.207,0.113,0.074,-,CALM,No
2022/06/12,20:10,0.143,0.133,0.207,0.204,0.209,0.113,0.074,-,CALM,No
2022/06/12,20:20,0.143,0.133,0.207,0.203,0.209,0.114,0.073,north-northeast,1.2,No
2022/06/12,20:30,0.144,0.133,0.207,0.203,0.208,0.113,0.074,north-northeast,1.6,No
2022/06/12,20:40,0.143,0.133,0.206,0.204,0.209,0.114,0.074,north-northeast,1.0,No
2022/06/12,20:50,0.143,0.133,0.207,0.204,0.208,0.114,0.074,north,1.3,No
2022/06/12,21:00,0.144,0.134,0.207,0.203,0.210,0.113,0.074,north,1.5,No
2022/06/12,21:10,0.144,0.135,0.208,0.205,0.208,0.114,0.074,north-northwest,1.8,No
2022/06/12,21:20,0.143,0.133,0.209,0.204,0.211,0.114,0.074,north,1.4,No
2022/06/12,21:30,0.144,0.134,0.207,0.204,0.209,0.113,0.074,northwest,1.2,No
2022/06/12,21:40,0.144,0.134,0.207,0.204,0.210,0.115,0.074,north-northwest,0.6,No
2022/06/12,21:50,0.144,0.133,0.208,0.204,0.209,0.114,0.074,west-northwest,1.2,No
2022/06/12,22:00,0.144,0.133,0.208,0.204,0.209,0.114,0.075,west-northwest,1.4,No
2022/06/12,22:10,0.144,0.133,0.209,0.203,0.209,0.115,0.074,northwest,1.2,No
2022/06/12,22:20,0.144,0.134,0.208,0.204,0.209,0.114,0.074,-,CALM,No
2022/06/12,22:30,0.144,0.133,0.207,0.204,0.211,0.114,0.074,-,CALM,No
2022/06/12,22:40,0.143,0.134,0.209,0.203,0.209,0.115,0.075,-,CALM,No
2022/06/12,22:50,0.145,0.134,0.207,0.204,0.209,0.116,0.074,east-northeast,0.6,No
2022/06/12,23:00,0.144,0.134,0.208,0.203,0.209,0.115,0.074,west-northwest,1.8,No
2022/06/12,23:10,0.144,0.134,0.209,0.203,0.208,0.114,0.074,west-northwest,3.5,No
2022/06/12,23:20,0.144,0.133,0.207,0.205,0.211,0.115,0.074,west-northwest,5.6,No
2022/06/12,23:30,0.144,0.134,0.208,0.204,0.210,0.114,0.074,northwest,6.3,No
2022/06/12,23:40,0.144,0.134,0.208,0.204,0.210,0.115,0.075,north-northwest,5.3,No
2022/06/12,23:50,0.144,0.134,0.208,0.205,0.211,0.115,0.074,northwest,6.3,No
